san ya , China , Asia

  • Tuesday
    January 31

    Cloudy  Cloudy

    77 °F  61 °F

    East  No wind

    3~4L    

  • Wednesday
    February 1

    Cloudy  Cloudy

    84 °F  68 °F

    East  No wind

    3~4L    

  • Thursday
    February 2

    Cloudy  Cloudy

    84 °F  72 °F

    No wind  No wind

        

  • Friday
    February 3

    Cloudy  Cloudy

    81 °F  72 °F

    No wind  No wind

        

  • Saturday
    February 4

    Cloudy  Cloudy

    81 °F  72 °F

    No wind  No wind

        

  • Sunday
    February 5

    Cloudy  Cloudy

    81 °F  72 °F

    No wind  No wind

        

  • Monday
    February 6

    Cloudy  Cloudy

    81 °F  72 °F

    No wind  No wind

        

Date   Weather Temperature Humidity Total_rain Visibility Wind
17:00 Cloudy 71°F 90.8% 0mm 231.2km Northeast  7.0m/s
20:00 Cloudy 64°F 94% 0mm 218.3km Northeast  7.9m/s
23:00 Cloudy 63°F 97.3% 0mm 212.3km Northeast  3.3m/s
02:00 Cloudy 64°F 97.6% 0mm 189km Northeast  2.4m/s
05:00 Cloudy 65°F 98% 0mm 186.2km Northeast  2.3m/s
08:00 Cloudy 74°F 94.6% 0mm 177.4km Northeast  2.9m/s
11:00 Cloudy 80°F 79.6% 0mm 249.9km Northeast  7.0m/s
14:00 Cloudy 84°F 85.4% 0mm 222.7km Southeast  6.6m/s
11:00 Cloudy 80°F 79.6% 0mm 249.9km Northeast  7.0m/s
14:00 Cloudy 84°F 85.4% 0mm 222.7km Southeast  6.6m/s
17:00 Cloudy 79°F 88.8% 0mm 213.7km Southeast  7.9m/s
20:00 Cloudy 69°F 94.8% 0mm 180.7km Northeast  7.9m/s
23:00 Cloudy 68°F 98% 0mm 178.5km Northeast  2.2m/s
02:00 Cloudy 69°F 95.7% 0mm 153.7km Northeast  2.8m/s
05:00 Cloudy 69°F 95.7% 0mm 111.8km Northeast  2.6m/s
08:00 Cloudy 71°F 94.1% 0mm 109.1km Northeast  3.3m/s
11:00 Cloudy 82°F 87.8% 0mm 205km Northeast  2.3m/s
14:00 Cloudy 84°F 91.9% 0mm 214.8km Northeast  2.5m/s
17:00 Cloudy 80°F 96.7% 0mm 191.7km Northeast  1.8m/s
20:00 Cloudy 75°F 98% 0mm 173.3km Northeast  3.3m/s
23:00 Cloudy 72°F 98% 0mm 174.4km Northeast  2.4m/s
02:00 Cloudy 73°F 98% 0mm 175.5km Northeast  3.3m/s
05:00 Cloudy 73°F 97.4% 0mm 175.2km Northeast  1.9m/s
08:00 Cloudy 74°F 98% 0mm 174.9km Northeast  2.7m/s
11:00 Cloudy 78°F 92.5% 0mm 182.4km Northeast  3.3m/s
14:00 Cloudy 81°F 93.4% 0mm 189.9km Northeast  2.7m/s
17:00 Cloudy 78°F 95.1% 0mm 173.8km Northeast  2.9m/s
20:00 Cloudy 76°F 98% 0mm 157.6km Northeast  1.8m/s
23:00 Cloudy 76°F 98% 0mm 155.9km Northeast  3.3m/s
02:00 Cloudy 75°F 98% 0mm 154.2km Northeast  2.8m/s
05:00 Cloudy 73°F 98% 0mm 149.9km Northeast  2.9m/s
08:00 Cloudy 77°F 98% 0mm 145.7km Northeast  2.1m/s
11:00 Cloudy 80°F 92.8% 0mm 163km Northeast  3.3m/s
14:00 Cloudy 81°F 91.9% 0mm 180.3km Southeast  2.1m/s
17:00 Cloudy 79°F 95.9% 0mm 178.3km Southeast  3.3m/s
20:00 Cloudy 75°F 95.9% 0mm 176.3km Northeast  2.6m/s
23:00 Cloudy 73°F 95.9% 0mm 159.2km Northeast  3.2m/s
02:00 Cloudy 73°F 95.9% 0mm 142.2km Northeast  2.8m/s
05:00 Cloudy 72°F 98% 0mm 148.7km Northeast  2.3m/s
08:00 Cloudy 74°F 98% 0mm 155.2km Northeast  3.3m/s
11:00 Cloudy 79°F 85% 0mm 176.5km Northeast  3.3m/s
14:00 Cloudy 80°F 93.2% 0mm 197.7km Southeast  2.6m/s
17:00 Cloudy 76°F 96.6% 0mm 190.3km Southeast  2.6m/s
20:00 Cloudy 73°F 97.3% 0mm 182.8km Northeast  1.8m/s
23:00 Cloudy 73°F 98% 0mm 171.8km Northeast  1.8m/s
02:00 Cloudy 72°F 97.9% 0mm 160.8km Northeast  1.8m/s
05:00 Cloudy 73°F 97.6% 0mm 159km Northeast  3.1m/s
08:00 Cloudy 74°F 86.1% 0mm 157.2km Northeast  3.3m/s
11:00 Cloudy 79°F 89.8% 0mm 188.7km Southeast  3.3m/s
14:00 Cloudy 81°F 87.4% 0mm 220.3km Southeast  3.3m/s
17:00 Cloudy 76°F 95.2% 0mm 201.5km Southeast  3.1m/s
20:00 Cloudy 72°F 97.9% 0mm 182.7km Southeast  2.2m/s
23:00 Cloudy 74°F 98% 0mm 164.7km Southeast  2.6m/s
02:00 Cloudy 74°F 98% 0mm 146.7km Southeast  2.4m/s
05:00 Light Rain 74°F 98% 0mm 133.5km Southeast  3.3m/s
08:00 Light Rain 75°F 98% 0mm 120.2km Southeast  3.3m/s